Wetterdaten: aktuell Sonntag, 06.09.2026 09:18
Datum Zeit Temp. A. Feuchte A. Luftdruck Regen Wind Richtung Richtung Sonnenschein Regendauer Taupunkt Windchill
06.09.2026 09:18 14,7 °C 77 % 1026,3 hPa 0,0 mm 7,1 km/h (2 Bft) SO 135 ° 5 min 0 min 10,7 °C 14,7 °C
06.09.2026 09:13 14,6 °C 77 % 1026,3 hPa 0,0 mm 5,1 km/h (1 Bft) S 170 ° 5 min 0 min 10,6 °C 14,6 °C
06.09.2026 09:08 14,4 °C 78 % 1026,3 hPa 0,0 mm 2,2 km/h (1 Bft) O 90 ° 5 min 0 min 10,6 °C 14,4 °C
06.09.2026 09:03 13,9 °C 79 % 1026,4 hPa 0,0 mm 0,4 km/h (0 Bft) O-SO 120 ° 5 min 0 min 10,3 °C 13,9 °C
06.09.2026 08:58 13,6 °C 79 % 1026,5 hPa 0,0 mm 4,6 km/h (1 Bft) O 100 ° 4 min 0 min 10,0 °C 13,6 °C
06.09.2026 08:53 13,5 °C 80 % 1026,5 hPa 0,0 mm 6,5 km/h (2 Bft) O 100 ° 6 min 0 min 10,1 °C 13,5 °C
06.09.2026 08:48 14,2 °C 77 % 1026,4 hPa 0,0 mm 0,0 km/h (0 Bft) SO 140 ° 5 min 0 min 10,2 °C 14,2 °C
06.09.2026 08:43 14,3 °C 76 % 1026,4 hPa 0,0 mm 0,0 km/h (0 Bft) O 100 ° 5 min 0 min 10,1 °C 14,3 °C
06.09.2026 08:38 14,0 °C 77 % 1026,4 hPa 0,0 mm 0,0 km/h (0 Bft) S-SO 150 ° 5 min 0 min 10,0 °C 14,0 °C
06.09.2026 08:33 13,3 °C 77 % 1026,5 hPa 0,0 mm 0,0 km/h (0 Bft) W-NW 290 ° 5 min 0 min 9,4 °C 13,3 °C
06.09.2026 08:28 13,6 °C 77 % 1026,5 hPa 0,0 mm 0,0 km/h (0 Bft) O 95 ° 5 min 0 min 9,6 °C 13,6 °C
06.09.2026 08:23 13,3 °C 78 % 1026,5 hPa 0,0 mm 0,0 km/h (0 Bft) O-NO 75 ° 5 min 0 min 9,5 °C 13,3 °C
06.09.2026 08:18 13,1 °C 79 % 1026,6 hPa 0,0 mm 0,0 km/h (0 Bft) O 90 ° 6 min 0 min 9,5 °C 13,1 °C
06.09.2026 08:13 12,8 °C 80 % 1026,6 hPa 0,0 mm 0,0 km/h (0 Bft) O 90 ° 4 min 0 min 9,4 °C 12,8 °C
06.09.2026 08:08 13,0 °C 80 % 1026,6 hPa 0,0 mm 0,0 km/h (0 Bft) O 100 ° 5 min 0 min 9,6 °C 13,0 °C
06.09.2026 08:03 12,8 °C 80 % 1026,6 hPa 0,0 mm 0,0 km/h (0 Bft) O 80 ° 3 min 0 min 9,4 °C 12,8 °C
06.09.2026 07:58 12,9 °C 80 % 1026,6 hPa 0,0 mm 0,0 km/h (0 Bft) NO 45 ° 8 min 0 min 9,5 °C 12,9 °C
06.09.2026 07:53 12,8 °C 79 % 1026,6 hPa 0,0 mm 0,0 km/h (0 Bft) O-NO 75 ° 3 min 0 min 9,2 °C 12,8 °C
06.09.2026 07:48 12,6 °C 80 % 1026,7 hPa 0,0 mm 0,0 km/h (0 Bft) O 80 ° 7 min 0 min 9,2 °C 12,6 °C
06.09.2026 07:43 12,1 °C 81 % 1026,8 hPa 0,0 mm 0,0 km/h (0 Bft) O 90 ° 3 min 0 min 8,9 °C 12,1 °C
06.09.2026 07:38 12,0 °C 81 % 1026,8 hPa 0,0 mm 0,0 km/h (0 Bft) O 90 ° 6 min 0 min 8,8 °C 12,0 °C
06.09.2026 07:33 11,4 °C 84 % 1025,9 hPa 0,0 mm 0,0 km/h (0 Bft) S 175 ° 6 min 0 min 8,8 °C 11,4 °C
06.09.2026 07:28 11,0 °C 85 % 1025,9 hPa 0,0 mm 0,0 km/h (0 Bft) O-SO 120 ° 4 min 0 min 8,6 °C 11,0 °C
06.09.2026 07:23 10,6 °C 87 % 1026,0 hPa 0,0 mm 0,0 km/h (0 Bft) SO 125 ° 6 min 0 min 8,5 °C 10,6 °C
06.09.2026 07:18 10,3 °C 87 % 1026,1 hPa 0,0 mm 0,0 km/h (0 Bft) N 5 ° 4 min 0 min 8,2 °C 10,3 °C
06.09.2026 07:13 10,6 °C 88 % 1026,0 hPa 0,0 mm 0,0 km/h (0 Bft) NO 35 ° 6 min 0 min 8,7 °C 10,6 °C
06.09.2026 07:08 10,1 °C 90 % 1026,1 hPa 0,0 mm 0,0 km/h (0 Bft) O-NO 75 ° 3 min 0 min 8,5 °C 10,1 °C
06.09.2026 07:03 9,8 °C 90 % 1026,2 hPa 0,0 mm 0,0 km/h (0 Bft) SO 145 ° 7 min 0 min 8,2 °C 9,8 °C
06.09.2026 06:58 9,1 °C 91 % 1026,3 hPa 0,0 mm 0,0 km/h (0 Bft) N-NW 345 ° 2 min 0 min 7,7 °C 9,1 °C
06.09.2026 06:53 9,0 °C 91 % 1026,3 hPa 0,0 mm 0,0 km/h (0 Bft) N-NW 330 ° 0 min 0 min 7,6 °C 9,0 °C
06.09.2026 06:48 9,3 °C 90 % 1026,3 hPa 0,0 mm 0,0 km/h (0 Bft) N-NW 335 ° 0 min 0 min 7,7 °C 9,3 °C
06.09.2026 06:43 9,3 °C 90 % 1026,3 hPa 0,0 mm 0,0 km/h (0 Bft) NW 325 ° 0 min 0 min 7,7 °C 9,3 °C
06.09.2026 06:38 9,4 °C 90 % 1026,3 hPa 0,0 mm 0,0 km/h (0 Bft) W 260 ° 0 min 0 min 7,8 °C 9,4 °C
06.09.2026 06:33 9,3 °C 90 % 1026,3 hPa 0,0 mm 0,0 km/h (0 Bft) W 265 ° 0 min 0 min 7,7 °C 9,3 °C
06.09.2026 06:28 9,2 °C 91 % 1026,3 hPa 0,0 mm 0,0 km/h (0 Bft) NW 310 ° 0 min 0 min 7,8 °C 9,2 °C
06.09.2026 06:23 9,2 °C 91 % 1026,3 hPa 0,0 mm 0,0 km/h (0 Bft) W 270 ° 0 min 0 min 7,8 °C 9,2 °C
06.09.2026 06:18 9,2 °C 91 % 1026,3 hPa 0,0 mm 3,1 km/h (1 Bft) W 260 ° 0 min 0 min 7,8 °C 9,2 °C
06.09.2026 06:13 9,1 °C 91 % 1026,3 hPa 0,0 mm 0,0 km/h (0 Bft) NW 305 ° 0 min 0 min 7,7 °C 9,1 °C
06.09.2026 06:08 9,2 °C 91 % 1026,3 hPa 0,0 mm 0,0 km/h (0 Bft) W-NW 295 ° 0 min 0 min 7,8 °C 9,2 °C
06.09.2026 06:03 9,1 °C 91 % 1026,3 hPa 0,0 mm 0,0 km/h (0 Bft) W-NW 295 ° 0 min 0 min 7,7 °C 9,1 °C
06.09.2026 05:58 9,1 °C 91 % 1026,3 hPa 0,0 mm 0,0 km/h (0 Bft) W 265 ° 0 min 0 min 7,7 °C 9,1 °C
06.09.2026 05:53 9,1 °C 91 % 1026,3 hPa 0,0 mm 0,0 km/h (0 Bft) NO 55 ° 0 min 0 min 7,7 °C 9,1 °C
06.09.2026 05:48 9,3 °C 91 % 1026,3 hPa 0,0 mm 0,0 km/h (0 Bft) NO 55 ° 0 min 0 min 7,9 °C 9,3 °C
06.09.2026 05:43 9,4 °C 91 % 1026,3 hPa 0,0 mm 0,0 km/h (0 Bft) N-NO 25 ° 0 min 0 min 8,0 °C 9,4 °C
06.09.2026 05:38 9,5 °C 91 % 1026,2 hPa 0,0 mm 0,0 km/h (0 Bft) W 275 ° 0 min 0 min 8,1 °C 9,5 °C
06.09.2026 05:33 9,4 °C 92 % 1026,3 hPa 0,0 mm 0,0 km/h (0 Bft) W-NW 285 ° 0 min 0 min 8,2 °C 9,4 °C
06.09.2026 05:28 9,3 °C 92 % 1026,3 hPa 0,0 mm 0,0 km/h (0 Bft) W 260 ° 0 min 0 min 8,1 °C 9,3 °C
06.09.2026 05:23 9,3 °C 91 % 1026,3 hPa 0,0 mm 0,0 km/h (0 Bft) W-NW 290 ° 0 min 0 min 7,9 °C 9,3 °C
06.09.2026 05:18 9,5 °C 91 % 1026,2 hPa 0,0 mm 0,0 km/h (0 Bft) NW 305 ° 0 min 0 min 8,1 °C 9,5 °C
_ Min-Zeit 06:53 16:43 16:23 - 10:08 - - - - 06:53 06:53
Minimum _ 9,0 °C 59 % 1017,4 hPa - 0,0 km/h (0 Bft) - - - - 7,6 °C 9,0 °C
_ Max-Zeit 16:48 10:03 07:38 10:03 16:13 - - 07:58 10:03 14:58 16:48
Maximum _ 23,3 °C 94 % 1026,8 hPa 0,0 mm 25,8 km/h
SO (4 Bft)
- - 8 min 0 min 16,6 °C 23,3 °C
Durchschnitt _ 15,5 °C 80 % 1022,4 hPa #0,0 mm 4,4 km/h (1 Bft) NW - #2:23 h #0 min. 11,9 °C 15,5 °C